Wind_Speed
36 37 38 38 38 38 39 40 41 41 42 43 44 44 44 46 48 49 49 48 47 48 48 48 47 47 48 48 47 46 45 44 42 42 41 40 39 39 39 38 37 36 36
36 36 37 37 37 38 39 40 41 42 42 42 43 44 44 45 46 47 48 49 48 47 48 48 48 48 48 48 48 47 46 45 44 43 42 42 40 40 40 39 38 38 38
35 35 35 35 36 38 39 40 41 42 42 42 43 43 44 44 44 46 47 48 48 48 48 48 48 48 48 49 49 48 48 47 46 45 43 43 43 41 40 40 39 39 39
33 34 34 34 36 37 37 38 39 39 41 42 43 44 44 44 44 45 47 48 48 48 49 49 49 48 49 49 49 49 48 48 47 47 45 44 44 43 41 41 41 40 40
31 32 32 33 35 36 36 37 37 38 39 41 43 44 45 45 45 46 46 47 48 47 49 49 49 49 49 49 49 49 49 49 49 48 47 46 45 45 44 42 42 42 41
29 30 30 32 34 34 35 35 36 37 38 40 42 43 44 46 46 46 46 47 47 47 48 49 49 49 49 50 49 50 50 50 50 49 48 48 46 45 45 44 43 43 43
29 30 30 31 32 32 33 35 36 36 38 39 40 41 43 44 44 45 46 47 47 47 48 49 49 49 49 49 49 50 50 50 50 50 49 48 48 47 46 46 45 44 44
29 29 30 31 30 31 32 34 34 35 36 37 38 40 42 43 43 44 46 47 47 48 48 48 49 49 49 49 49 50 50 50 50 51 50 50 49 49 48 47 46 45 45
29 29 29 30 30 31 32 33 33 34 35 36 37 39 41 42 43 44 45 46 46 47 47 48 49 50 49 49 49 50 50 51 51 51 51 51 50 50 49 48 47 46 45
28 29 30 30 30 31 32 32 33 33 34 35 36 37 39 41 42 43 43 44 45 45 46 47 48 49 49 50 49 50 50 51 51 50 50 51 51 50 50 49 49 48 47
29 29 30 31 30 31 31 32 32 33 34 34 36 37 38 39 41 42 42 43 44 44 45 46 48 48 48 48 49 50 51 51 51 51 50 51 52 51 51 52 51 50 49
29 30 31 32 32 31 31 31 31 32 33 34 35 36 38 39 40 41 42 43 44 44 44 45 47 47 46 47 48 49 50 51 51 52 52 52 53 53 53 52 52 52 51
30 31 31 31 31 30 30 31 31 31 32 33 35 36 37 38 39 40 40 41 41 43 44 44 46 45 45 46 48 50 50 51 52 53 52 53 54 54 54 54 53 52 51
31 31 31 31 31 30 31 31 31 31 32 33 34 35 36 37 38 39 40 40 41 42 43 43 45 46 45 45 47 50 50 51 52 53 53 53 53 53 54 54 53 54 53
31 31 31 31 31 31 31 31 31 31 31 32 33 34 34 35 37 38 39 40 41 41 41 42 42 43 45 46 47 48 50 51 52 52 52 52 53 54 55 55 54 54 54
31 31 30 30 30 31 31 30 30 30 31 31 32 32 33 34 35 36 38 39 40 42 42 42 43 43 44 46 47 47 48 51 52 52 53 53 54 55 54 54 54 54 54
30 30 30 30 29 29 30 29 29 30 30 30 31 32 32 33 35 37 38 39 40 42 43 42 42 43 43 45 46 45 47 49 51 52 53 53 54 54 54 55 55 55 55
30 29 29 29 29 29 28 28 28 28 29 29 29 30 31 32 32 34 36 38 39 40 41 41 41 41 42 43 43 45 46 48 51 52 53 53 54 54 54 54 55 55 55
29 29 28 28 28 28 28 29 28 28 27 28 30 31 31 31 32 33 34 36 39 40 41 41 41 42 42 42 42 44 45 46 48 50 52 52 53 54 54 54 54 55 56
30 30 29 28 28 28 28 28 28 29 28 27 28 29 30 31 32 33 33 34 37 40 41 42 42 42 42 42 42 42 43 44 46 48 49 49 51 52 53 53 54 54 55
30 30 30 28 28 28 27 28 28 28 28 27 27 27 29 30 32 32 33 34 36 38 39 41 42 41 42 42 43 43 43 44 45 46 46 48 49 50 52 52 53 53 53
30 30 30 29 28 26 26 26 26 26 26 25 25 26 27 29 31 31 32 34 35 37 38 40 41 42 41 42 43 42 43 44 45 45 45 46 47 49 50 50 51 51 52
29 29 29 29 28 26 25 25 25 25 25 25 25 26 27 28 29 30 31 32 33 35 36 38 39 40 41 41 41 41 41 42 44 45 45 45 46 47 48 49 50 51 52
30 29 29 29 29 28 26 25 25 24 24 25 26 27 27 29 30 31 31 31 32 34 35 37 38 38 39 40 40 40 41 41 43 44 44 44 45 47 47 48 49 51 51
29 28 28 27 27 26 26 25 25 24 24 25 26 26 27 28 29 31 31 31 32 33 34 35 36 37 37 38 39 39 39 40 41 43 44 45 45 46 47 48 49 49 50
28 28 27 26 26 26 25 24 24 24 24 25 26 26 27 27 29 30 30 31 31 32 33 34 35 36 37 38 37 37 38 39 40 41 42 43 44 45 46 47 48 48 48
Wind_Direction
269 268 266 266 265 264 263 262 261 259 257 254 252 250 248 247 245 244 243 242 242 242 241 241 242 242 242 242 242 243 243 243 244 246 246 245 246 247 247 248 248 249 250
270 268 266 266 266 264 263 262 261 260 258 255 253 250 249 247 246 246 244 242 243 242 242 241 242 243 243 242 243 243 243 244 245 246 246 246 246 247 247 248 248 249 250
273 269 266 266 266 265 264 264 263 261 258 255 254 251 248 247 246 245 243 243 243 242 242 241 242 242 242 243 244 244 243 243 244 245 246 247 246 247 248 248 249 249 250
273 270 267 267 267 266 265 264 263 261 258 256 254 251 248 246 246 245 244 243 243 243 242 241 242 242 243 244 244 244 243 243 244 245 247 247 247 247 248 248 249 249 249
276 272 270 270 269 267 266 265 263 262 259 256 254 252 250 247 246 245 244 243 243 242 242 240 241 242 242 243 243 242 242 243 245 245 246 247 247 247 248 248 249 250 249
279 274 273 275 272 269 266 264 263 262 259 256 254 252 250 247 247 245 243 243 243 243 242 241 241 242 242 243 244 243 243 244 245 245 245 246 247 247 248 249 249 250 250
281 279 275 277 273 270 266 265 264 261 259 257 254 252 250 248 246 245 244 244 244 245 243 241 241 241 241 243 244 243 243 244 244 244 244 245 246 247 247 248 248 249 250
282 280 278 279 276 272 269 268 266 262 261 258 255 253 250 248 246 245 245 244 245 245 244 243 243 241 241 243 243 243 243 244 244 243 244 245 245 246 247 247 248 248 248
282 280 280 280 279 276 273 270 267 263 261 259 256 254 251 249 248 247 245 245 245 245 244 243 242 242 242 242 243 243 242 243 244 243 244 244 245 245 246 246 246 247 247
282 281 281 282 279 276 274 272 268 263 260 259 257 255 252 251 250 248 247 246 246 245 244 243 243 243 243 243 243 243 243 243 243 243 243 243 244 244 244 244 245 246 247
284 283 282 281 281 277 273 272 268 263 260 259 257 256 254 253 251 248 247 246 246 245 244 244 244 243 244 244 243 243 243 243 242 242 243 243 243 243 244 244 245 247 248
286 285 284 282 280 278 274 272 268 264 262 260 260 258 257 254 251 249 247 247 246 245 245 246 245 244 245 245 244 244 243 242 242 242 242 243 243 244 244 245 247 247 248
287 287 285 283 282 279 276 272 269 266 263 261 261 260 259 255 251 249 248 247 246 247 246 247 246 245 246 246 245 244 243 243 242 242 242 243 244 245 245 246 247 248 249
287 286 285 283 282 280 277 274 270 267 265 262 261 259 258 255 251 249 248 246 247 248 247 248 247 247 247 247 247 246 244 243 242 242 244 244 245 246 246 247 248 249 249
287 286 284 284 282 281 276 273 270 268 266 263 261 260 258 254 250 249 248 248 248 247 247 248 248 248 248 248 249 247 245 244 244 244 244 245 245 246 247 248 249 250 250
288 287 285 283 282 281 279 273 270 268 266 263 262 261 258 253 250 250 251 250 249 248 249 250 249 250 250 250 250 248 247 246 245 246 246 245 246 246 247 247 248 249 251
287 287 287 284 283 283 280 276 270 267 265 263 261 259 255 253 252 253 253 252 251 249 250 251 252 252 252 251 249 249 249 247 247 246 246 246 246 246 248 249 249 250 251
285 285 287 285 283 282 281 277 272 268 265 263 261 259 256 254 254 255 255 254 253 251 253 254 254 254 253 251 252 252 251 249 247 246 247 247 247 247 247 249 250 251 252
285 285 285 286 285 282 279 275 272 269 268 265 262 260 257 255 255 256 257 256 255 255 256 256 255 255 254 254 254 254 253 249 247 247 247 247 247 247 248 249 250 251 252
283 284 285 286 286 283 280 276 272 271 269 267 264 259 256 256 256 257 258 259 258 260 260 259 257 257 255 255 255 255 253 251 249 248 247 247 248 248 249 250 251 252 252
284 284 285 285 285 283 281 276 273 271 269 267 265 261 258 258 258 258 258 260 261 262 262 261 259 258 255 254 255 255 254 252 250 250 248 248 248 249 249 250 251 251 252
286 285 284 284 284 282 280 277 274 272 269 267 266 264 261 260 260 260 261 261 262 263 263 262 260 257 255 255 254 255 255 253 252 252 251 250 250 250 249 250 251 251 252
287 287 285 284 284 282 281 279 275 272 270 268 267 265 263 262 264 265 263 263 264 264 263 261 260 258 256 255 255 255 255 255 254 253 252 251 250 251 251 251 252 253 253
288 287 286 284 283 283 281 281 280 277 273 271 269 268 266 265 265 266 266 266 265 264 262 260 259 258 256 256 256 257 255 256 255 254 253 252 251 251 252 252 253 253 253
287 288 286 284 282 281 281 281 281 279 276 275 272 271 269 268 267 266 266 266 266 264 262 261 259 258 257 257 256 257 257 257 256 256 255 254 253 253 253 253 252 253 253
285 285 284 283 281 279 278 277 279 280 279 278 275 272 272 270 269 267 266 266 266 265 264 263 261 258 258 257 257 257 257 257 257 256 255 255 254 253 254 254 253 253 253
Height
5662 5661 5660 5660 5660 5659 5659 5658 5658 5659 5659 5661 5663 5665 5669 5672 5675 5679 5683 5688 5692 5697 5701 5706 5710 5715 5719 5723 5727 5731 5734 5738 5741 5744 5748 5751 5753 5756 5759 5761 5764 5766 5768
5651 5650 5649 5649 5648 5648 5647 5646 5646 5646 5647 5648 5651 5653 5656 5659 5663 5667 5671 5675 5680 5685 5689 5693 5698 5703 5707 5712 5716 5720 5723 5727 5731 5734 5737 5741 5744 5746 5749 5752 5754 5757 5759
5641 5640 5639 5638 5638 5636 5635 5634 5634 5634 5635 5636 5638 5641 5644 5647 5651 5654 5659 5663 5668 5672 5677 5681 5686 5690 5695 5700 5704 5708 5712 5716 5720 5724 5727 5731 5734 5737 5740 5742 5745 5747 5750
5631 5630 5628 5628 5627 5625 5624 5623 5622 5622 5623 5624 5626 5629 5632 5635 5639 5643 5647 5651 5655 5660 5664 5669 5674 5678 5683 5687 5692 5696 5700 5705 5709 5713 5717 5721 5724 5727 5730 5733 5735 5738 5740
5622 5620 5619 5617 5615 5613 5612 5612 5611 5611 5611 5612 5614 5616 5619 5623 5627 5630 5634 5639 5643 5647 5652 5656 5661 5665 5670 5675 5679 5684 5688 5693 5698 5702 5706 5710 5713 5716 5720 5723 5726 5728 5730
5613 5611 5609 5607 5604 5602 5601 5601 5600 5600 5600 5601 5602 5604 5607 5610 5614 5618 5622 5627 5631 5635 5639 5643 5648 5653 5658 5663 5667 5672 5677 5681 5686 5690 5694 5698 5702 5705 5709 5712 5715 5717 5719
5604 5601 5600 5597 5595 5592 5591 5590 5590 5589 5589 5589 5590 5592 5595 5598 5602 5606 5611 5615 5619 5623 5626 5630 5636 5640 5645 5650 5655 5659 5664 5669 5673 5678 5683 5686 5690 5694 5697 5701 5704 5706 5709
5595 5593 5591 5588 5585 5583 5581 5580 5579 5579 5579 5579 5580 5581 5584 5587 5591 5595 5598 5602 5606 5610 5613 5618 5623 5627 5632 5637 5642 5646 5651 5656 5661 5666 5670 5674 5678 5682 5686 5689 5692 5695 5698
5587 5584 5582 5579 5576 5573 5572 5570 5569 5568 5568 5569 5569 5571 5573 5577 5580 5583 5586 5590 5594 5597 5600 5605 5609 5614 5619 5624 5628 5633 5638 5643 5648 5653 5658 5662 5666 5670 5674 5677 5681 5684 5687
5578 5576 5573 5570 5567 5565 5562 5560 5558 5558 5558 5559 5560 5562 5564 5566 5569 5571 5575 5578 5581 5585 5589 5593 5597 5602 5606 5611 5615 5620 5625 5630 5635 5640 5645 5649 5654 5658 5661 5665 5669 5672 5676
5570 5567 5564 5561 5558 5555 5553 5551 5549 5549 5549 5550 5551 5553 5554 5556 5558 5561 5564 5567 5569 5573 5577 5580 5584 5589 5593 5598 5602 5607 5611 5616 5621 5627 5632 5637 5641 5645 5649 5653 5656 5660 5664
5561 5558 5555 5552 5550 5547 5544 5542 5541 5540 5540 5541 5542 5543 5545 5546 5548 5550 5553 5556 5559 5562 5566 5569 5573 5577 5581 5585 5589 5593 5598 5602 5608 5614 5619 5624 5628 5632 5636 5640 5644 5648 5651
5553 5550 5547 5544 5541 5539 5536 5535 5533 5532 5532 5532 5533 5534 5535 5537 5538 5541 5543 5546 5548 5551 5554 5558 5562 5565 5569 5572 5576 5581 5585 5589 5595 5600 5606 5611 5615 5619 5623 5627 5631 5635 5638
5544 5542 5539 5536 5533 5530 5529 5527 5526 5525 5525 5524 5525 5525 5526 5527 5529 5531 5533 5536 5538 5541 5544 5548 5551 5554 5557 5561 5564 5568 5572 5577 5582 5587 5592 5597 5602 5606 5610 5614 5618 5621 5625
5535 5533 5530 5528 5525 5522 5520 5519 5518 5517 5516 5516 5516 5517 5517 5519 5520 5522 5524 5526 5528 5531 5534 5537 5540 5543 5546 5549 5552 5556 5560 5565 5569 5574 5579 5583 5588 5592 5596 5600 5604 5607 5610
5527 5524 5522 5519 5517 5514 5512 5510 5509 5508 5508 5508 5508 5508 5509 5510 5511 5513 5515 5517 5519 5521 5523 5526 5529 5532 5535 5537 5540 5544 5548 5552 5556 5561 5565 5569 5573 5577 5581 5585 5589 5593 5596
5518 5515 5513 5510 5508 5505 5503 5502 5501 5500 5500 5499 5499 5499 5500 5502 5503 5504 5506 5507 5509 5511 5513 5516 5518 5521 5523 5525 5528 5531 5534 5538 5542 5546 5551 5555 5559 5563 5567 5570 5574 5578 5581
5509 5506 5504 5502 5500 5497 5495 5494 5493 5492 5491 5491 5491 5491 5492 5493 5494 5495 5496 5498 5499 5501 5503 5505 5507 5509 5511 5513 5515 5518 5520 5524 5528 5532 5536 5540 5544 5548 5552 5555 5559 5562 5566
5499 5497 5495 5493 5491 5489 5487 5486 5485 5484 5483 5482 5482 5483 5483 5484 5485 5486 5487 5488 5490 5491 5492 5494 5496 5498 5499 5501 5503 5505 5507 5511 5514 5518 5522 5526 5530 5534 5537 5541 5545 5548 5551
5491 5489 5486 5484 5482 5480 5479 5477 5476 5476 5475 5474 5474 5474 5475 5476 5477 5478 5478 5479 5480 5481 5482 5483 5484 5486 5487 5488 5490 5492 5495 5498 5502 5505 5508 5512 5515 5519 5521 5525 5529 5533 5537
5482 5480 5478 5476 5474 5472 5470 5469 5468 5467 5466 5466 5466 5466 5467 5467 5468 5469 5469 5469 5470 5470 5471 5472 5473 5474 5475 5476 5478 5480 5482 5485 5488 5491 5494 5497 5501 5504 5507 5510 5514 5518 5521
5473 5471 5469 5467 5465 5463 5462 5461 5459 5458 5458 5458 5458 5458 5458 5459 5459 5459 5459 5459 5459 5460 5460 5460 5461 5462 5463 5464 5466 5468 5470 5472 5475 5478 5481 5483 5486 5489 5492 5495 5499 5502 5505
5464 5462 5460 5458 5456 5454 5453 5452 5451 5450 5450 5450 5450 5450 5449 5450 5450 5450 5450 5449 5449 5449 5449 5449 5449 5450 5451 5452 5454 5456 5457 5459 5462 5465 5468 5470 5472 5475 5478 5481 5484 5486 5489
5455 5453 5451 5449 5448 5446 5445 5444 5443 5442 5442 5442 5441 5441 5441 5441 5441 5440 5440 5440 5439 5439 5438 5438 5438 5439 5440 5441 5442 5444 5446 5447 5449 5452 5454 5456 5459 5461 5464 5466 5468 5471 5474
5446 5444 5442 5441 5439 5438 5437 5436 5435 5434 5434 5433 5433 5433 5432 5432 5431 5431 5430 5430 5429 5428 5428 5427 5428 5428 5429 5430 5431 5432 5434 5436 5437 5439 5441 5444 5446 5448 5450 5452 5454 5457 5460
5437 5435 5434 5432 5431 5430 5429 5428 5427 5427 5426 5425 5425 5424 5423 5422 5422 5421 5421 5419 5419 5418 5417 5417 5417 5417 5418 5419 5419 5421 5422 5424 5425 5427 5429 5431 5433 5435 5437 5439 5441 5443 5445